GW5725 Weather Reports


Display with metric or nautical units.
time (UTC)temp
F
wind
direction
speed
MPH
gust
MPH
rain 1hr
in
rain 24hr
in
rain mn
in
humidity
%
barometer
mb
20260906040039 74 276 0.0 2.0 0.00 0.00 0.00 86 1013.4
20260906035520 74 275 0.0 2.0 0.00 0.00 0.00 85 1013.5
20260906035019 74 275 0.0 2.0 0.00 0.00 0.00 85 1013.5
20260906034534 74 273 0.0 2.0 0.00 0.00 0.00 85 1013.5
20260906034014 74 271 0.0 0.0 0.00 0.00 0.00 85 1013.6
20260906033516 75 271 0.0 2.0 0.00 0.00 0.00 84 1013.8
20260906033011 75 273 0.0 2.0 0.00 0.00 0.00 84 1013.8
20260906032504 75 273 0.0 2.0 0.00 0.00 0.00 84 1013.7
20260906032006 75 274 0.0 2.0 0.00 0.00 0.00 84 1013.7
20260906031531 75 272 0.0 2.0 0.00 0.00 0.00 84 1013.7
20260906031007 75 274 0.0 2.0 0.00 0.00 0.00 84 1013.7
20260906030508 75 275 0.0 2.0 0.00 0.00 0.00 84 1013.5
20260906030035 75 276 0.0 2.0 0.00 0.00 0.00 84 1013.5
20260906025508 75 277 0.0 2.0 0.00 0.00 0.00 84 1013.5
20260906025013 75 277 0.0 2.0 0.00 0.00 0.00 84 1013.6
20260906024516 75 92 0.0 1.0 0.00 0.00 0.00 83 1013.7
20260906024014 75 92 1.0 2.0 0.00 0.00 0.00 84 1013.8
20260906023514 75 290 0.0 2.0 0.00 0.00 0.00 84 1013.7
20260906023026 75 289 0.0 2.0 0.00 0.00 0.00 84 1013.7
20260906022516 75 213 0.0 2.0 0.00 0.00 0.00 84 1013.7
20260906022014 75 200 0.0 2.0 0.00 0.00 0.00 84 1013.7
20260906021507 75 129 0.0 2.0 0.00 0.00 0.00 83 1013.7
20260906021006 76 129 0.0 2.0 0.00 0.00 0.00 83 1013.6
20260906020508 76 128 0.0 2.0 0.00 0.00 0.00 83 1013.6
20260906020009 76 128 1.0 2.0 0.00 0.00 0.00 82 1013.6
20260906015508 76 142 0.0 2.0 0.00 0.00 0.00 82 1013.5
20260906015010 76 134 0.0 2.0 0.00 0.00 0.00 81 1013.4
20260906014526 76 119 0.0 2.0 0.00 0.00 0.00 81 1013.3
20260906014015 76 150 0.0 2.0 0.00 0.00 0.00 80 1013.1
20260906013514 76 94 0.0 2.0 0.00 0.00 0.00 80 1013.3
20260906013023 76 94 1.0 2.0 0.00 0.00 0.00 80 1013.2
20260906012514 76 290 0.0 0.0 0.00 0.00 0.00 79 1013.1
20260906012017 77 290 0.0 0.0 0.00 0.00 0.00 79 1012.9
20260906011538 77 291 0.0 0.0 0.00 0.00 0.00 79 1012.8
20260906011018 77 291 0.0 1.0 0.00 0.00 0.00 79 1012.8
20260906010506 77 291 0.0 2.0 0.00 0.00 0.00 78 1012.8
20260906010007 77 292 0.0 2.0 0.00 0.00 0.00 78 1012.8
20260906005508 77 292 0.0 2.0 0.00 0.00 0.00 78 1012.8
20260906005010 77 292 0.0 2.0 0.00 0.00 0.00 78 1012.8
20260906004524 77 306 0.0 2.0 0.00 0.00 0.00 77 1012.8
20260906004011 77 306 0.0 2.0 0.00 0.00 0.00 77 1012.8
20260906003510 78 306 0.0 2.0 0.00 0.00 0.00 76 1012.6
20260906003025 78 306 1.0 2.0 0.00 0.00 0.00 76 1012.5
20260906002512 78 221 0.0 2.0 0.00 0.00 0.00 76 1012.8
20260906002015 78 128 0.0 2.0 0.00 0.00 0.00 75 1012.7
20260906001530 78 114 0.0 2.0 0.00 0.00 0.00 75 1012.6
20260906001016 78 118 0.0 2.0 0.00 0.00 0.00 74 1012.4
20260906000523 78 120 0.0 2.0 0.00 0.00 0.00 72 1012.5
20260906000030 79 128 0.0 2.0 0.00 0.00 0.00 72 1012.4
20260905235508 79 130 0.0 2.0 0.00 0.00 0.00 72 1012.3
20260905235007 79 124 0.0 1.0 0.00 0.00 0.00 71 1012.2
20260905234512 79 125 0.0 2.0 0.00 0.00 0.00 71 1012.2
20260905234011 79 134 0.0 2.0 0.00 0.00 0.00 71 1012.0
20260905233518 80 134 0.0 2.0 0.00 0.00 0.00 70 1012.0
20260905233015 80 223 0.0 2.0 0.00 0.00 0.00 70 1012.1
20260905232513 80 153 0.0 2.0 0.00 0.00 0.00 69 1012.1
20260905232013 80 129 0.0 2.0 0.00 0.00 0.00 70 1012.2
20260905231530 80 305 0.0 2.0 0.00 0.00 0.00 69 1012.3
20260905231016 80 304 0.0 2.0 0.00 0.00 0.00 69 1012.2
20260905230516 80 304 0.0 2.0 0.00 0.00 0.00 68 1012.3
20260905230033 80 305 0.0 2.0 0.00 0.00 0.00 70 1012.3
20260905225517 80 305 0.0 2.0 0.00 0.00 0.00 70 1012.3
20260905225017 81 304 0.0 2.0 0.00 0.00 0.00 70 1012.3
20260905224520 81 304 0.0 2.0 0.00 0.00 0.00 70 1012.3
20260905224009 81 304 0.0 2.0 0.00 0.00 0.00 71 1012.4
20260905223508 81 304 0.0 2.0 0.00 0.00 0.00 70 1012.4
20260905223017 81 304 0.0 2.0 0.00 0.00 0.00 70 1012.3
20260905222510 81 305 0.0 2.0 0.00 0.00 0.00 70 1012.3
20260905222014 81 304 0.0 2.0 0.00 0.00 0.00 70 1012.3
20260905221523 81 304 0.0 2.0 0.00 0.00 0.00 69 1012.2
20260905221014 81 304 0.0 2.0 0.00 0.00 0.00 69 1012.2
20260905220513 81 304 0.0 2.0 0.00 0.00 0.00 69 1012.4
20260905220030 81 219 0.0 2.0 0.00 0.00 0.00 68 1012.4
20260905215518 81 304 0.0 2.0 0.00 0.00 0.00 70 1012.4
20260905215016 81 317 0.0 2.0 0.00 0.00 0.00 68 1012.5
20260905214530 81 317 0.0 2.0 0.00 0.00 0.00 69 1012.5
20260905214018 81 311 1.0 1.0 0.00 0.00 0.00 68 1012.7
20260905213508 81 169 0.0 3.0 0.00 0.00 0.00 68 1012.8
20260905213032 81 74 0.0 3.0 0.00 0.00 0.00 68 1012.8
20260905212513 81 281 0.0 2.0 0.00 0.00 0.00 68 1012.9
20260905212013 81 63 1.0 2.0 0.00 0.00 0.00 68 1013.1
20260905211521 81 352 1.0 2.0 0.00 0.00 0.00 69 1013.2
20260905211018 81 104 1.0 2.0 0.00 0.00 0.00 69 1013.2
20260905210513 81 283 1.0 2.0 0.00 0.00 0.00 68 1013.3
20260905210025 81 92 1.0 2.0 0.00 0.00 0.00 68 1013.2
20260905205517 81 315 0.0 2.0 0.00 0.00 0.00 68 1013.3
20260905205018 81 304 0.0 4.0 0.00 0.00 0.00 71 1013.1
20260905204531 81 90 1.0 4.0 0.00 0.00 0.00 70 1012.9
20260905204018 81 65 1.0 4.0 0.00 0.00 0.00 71 1012.8
20260905203518 81 132 0.0 4.0 0.00 0.00 0.00 69 1012.8
20260905203035 81 337 0.0 4.0 0.00 0.00 0.00 69 1012.9
20260905202508 81 219 1.0 2.0 0.00 0.00 0.00 70 1013.0
20260905202015 81 315 0.0 3.0 0.00 0.00 0.00 69 1013.0
20260905201516 80 345 2.0 3.0 0.00 0.00 0.00 69 1012.9
20260905201015 80 338 2.0 3.0 0.00 0.00 0.00 70 1013.0
20260905200514 80 360 0.0 2.0 0.00 0.00 0.00 72 1013.1
20260905200027 80 305 0.0 2.0 0.00 0.00 0.00 71 1013.0
20260905195518 80 284 0.0 2.0 0.00 0.00 0.00 72 1013.1
20260905195019 80 323 1.0 2.0 0.00 0.00 0.00 72 1013.3
20260905194535 80 315 1.0 6.0 0.00 0.00 0.00 71 1013.5
20260905194017 80 242 0.0 6.0 0.00 0.00 0.00 71 1013.4
20260905193517 81 76 0.0 5.0 0.00 0.00 0.00 69 1013.4
20260905193029 82 352 2.0 14.0 0.00 0.00 0.00 66 1013.5
20260905192518 84 281 3.0 14.0 0.00 0.00 0.00 62 1013.8
20260905192015 86 38 4.0 14.0 0.00 0.00 0.00 58 1014.0
20260905191514 88 194 2.0 13.0 0.00 0.00 0.00 60 1013.8
20260905191012 89 106 3.0 13.0 0.00 0.00 0.00 57 1013.5
20260905190512 91 296 5.0 13.0 0.00 0.00 0.00 55 1013.3
20260905190026 91 351 1.0 4.0 0.00 0.00 0.00 55 1013.1
20260905185515 91 78 1.0 7.0 0.00 0.00 0.00 53 1013.0
20260905185015 92 308 1.0 7.0 0.00 0.00 0.00 54 1012.9
20260905184533 92 29 1.0 3.0 0.00 0.00 0.00 53 1012.8
20260905184014 93 317 0.0 2.0 0.00 0.00 0.00 54 1012.9
20260905183515 93 284 0.0 2.0 0.00 0.00 0.00 53 1012.7
20260905183035 93 257 0.0 2.0 0.00 0.00 0.00 51 1012.8
20260905182518 94 249 1.0 2.0 0.00 0.00 0.00 51 1012.8
20260905182016 94 346 0.0 2.0 0.00 0.00 0.00 50 1013.1
20260905181538 94 336 0.0 3.0 0.00 0.00 0.00 48 1013.0
20260905181015 95 302 0.0 3.0 0.00 0.00 0.00 51 1013.0
20260905180512 95 78 0.0 3.0 0.00 0.00 0.00 50 1013.0
20260905180020 95 82 1.0 3.0 0.00 0.00 0.00 49 1013.0
20260905175514 95 53 1.0 3.0 0.00 0.00 0.00 49 1013.2
20260905175014 95 352 1.0 3.0 0.00 0.00 0.00 49 1013.3
20260905174526 96 331 1.0 4.0 0.00 0.00 0.00 48 1013.4
20260905174003 95 225 1.0 7.0 0.00 0.00 0.00 47 1013.4
20260905173505 95 138 1.0 7.0 0.00 0.00 0.00 49 1013.4
20260905173004 94 70 2.0 4.0 0.00 0.00 0.00 51 1013.4
20260905172504 94 113 3.0 6.0 0.00 0.00 0.00 49 1013.5
20260905172009 95 67 2.0 6.0 0.00 0.00 0.00 50 1013.5
20260905171522 94 325 1.0 4.0 0.00 0.00 0.00 50 1013.6
20260905171013 94 290 1.0 3.0 0.00 0.00 0.00 50 1013.7
20260905170509 94 351 1.0 7.0 0.00 0.00 0.00 51 1013.8
20260905170018 95 276 2.0 7.0 0.00 0.00 0.00 50 1013.8
20260905165516 95 317 2.0 4.0 0.00 0.00 0.00 50 1014.0
20260905165012 95 228 1.0 3.0 0.00 0.00 0.00 50 1014.0
20260905164524 95 162 1.0 6.0 0.00 0.00 0.00 50 1014.1
20260905164002 94 326 1.0 6.0 0.00 0.00 0.00 53 1014.2
20260905163506 94 340 2.0 7.0 0.00 0.00 0.00 52 1014.2
20260905163006 94 300 3.0 7.0 0.00 0.00 0.00 52 1014.4
20260905162504 94 59 2.0 6.0 0.00 0.00 0.00 52 1014.5
20260905162006 94 94 3.0 6.0 0.00 0.00 0.00 52 1014.5
20260905161506 94 350 1.0 4.0 0.00 0.00 0.00 53 1014.5
20260905161006 93 227 1.0 4.0 0.00 0.00 0.00 52 1014.6
20260905160509 93 342 1.0 4.0 0.00 0.00 0.00 54 1014.6
20260905160034 93 330 1.0 4.0 0.00 0.00 0.00 54 1014.5
20260905155510 93 263 1.0 4.0 0.00 0.00 0.00 55 1014.6
20260905155011 92 32 1.0 4.0 0.00 0.00 0.00 56 1014.6
20260905154519 92 342 2.0 4.0 0.00 0.00 0.00 56 1014.6
20260905154012 92 271 1.0 4.0 0.00 0.00 0.00 56 1014.6
20260905153517 91 285 1.0 3.0 0.00 0.00 0.00 56 1014.7
20260905153004 91 257 1.0 4.0 0.00 0.00 0.00 57 1014.8
20260905152505 91 330 1.0 4.0 0.00 0.00 0.00 59 1014.7
20260905152005 91 9 1.0 3.0 0.00 0.00 0.00 57 1014.7
20260905151508 91 113 1.0 2.0 0.00 0.00 0.00 57 1014.7
20260905151013 91 23 0.0 3.0 0.00 0.00 0.00 60 1014.7
20260905150506 91 325 2.0 3.0 0.00 0.00 0.00 59 1014.7
20260905150011 91 174 1.0 4.0 0.00 0.00 0.00 59 1014.8
20260905145516 90 342 1.0 4.0 0.00 0.00 0.00 61 1014.8
20260905145011 90 114 1.0 4.0 0.00 0.00 0.00 60 1014.9
20260905144519 89 119 1.0 4.0 0.00 0.00 0.00 61 1014.9
20260905144012 89 292 1.0 3.0 0.00 0.00 0.00 61 1014.9
20260905143512 89 128 1.0 4.0 0.00 0.00 0.00 63 1015.0
20260905143031 88 352 1.0 4.0 0.00 0.00 0.00 65 1015.1
20260905142517 88 9 0.0 3.0 0.00 0.00 0.00 66 1015.1
20260905142014 87 197 1.0 3.0 0.00 0.00 0.00 65 1015.1
20260905141504 87 238 1.0 3.0 0.00 0.00 0.00 66 1015.2
20260905141005 86 314 1.0 4.0 0.00 0.00 0.00 67 1015.3
20260905140521 86 295 1.0 4.0 0.00 0.00 0.00 68 1015.2
20260905140010 86 348 2.0 3.0 0.00 0.00 0.00 68 1015.2
20260905135509 86 22 0.0 2.0 0.00 0.00 0.00 69 1015.3
20260905135008 85 343 0.0 2.0 0.00 0.00 0.00 71 1015.3
20260905134513 85 308 0.0 2.0 0.00 0.00 0.00 71 1015.4
20260905134012 84 297 0.0 2.0 0.00 0.00 0.00 72 1015.4
20260905133515 84 63 0.0 2.0 0.00 0.00 0.00 75 1015.4
20260905133024 83 284 1.0 2.0 0.00 0.00 0.00 75 1015.5
20260905132512 82 63 0.0 2.0 0.00 0.00 0.00 76 1015.4
20260905132017 82 320 1.0 2.0 0.00 0.00 0.00 77 1015.4
20260905131544 81 294 1.0 3.0 0.00 0.00 0.00 78 1015.5
20260905131018 81 300 2.0 3.0 0.00 0.00 0.00 79 1015.6
20260905130504 80 350 1.0 4.0 0.00 0.00 0.00 80 1015.5
20260905130007 80 344 2.0 4.0 0.00 0.00 0.00 80 1015.5
20260905125510 80 322 1.0 4.0 0.00 0.00 0.00 81 1015.5
20260905125009 79 309 1.0 3.0 0.00 0.00 0.00 82 1015.3
20260905124514 79 279 1.0 4.0 0.00 0.00 0.00 82 1015.3
20260905124011 79 352 1.0 4.0 0.00 0.00 0.00 82 1015.1
20260905123508 79 338 1.0 2.0 0.00 0.00 0.00 82 1015.1
20260905123020 78 336 0.0 2.0 0.00 0.00 0.00 83 1015.1
20260905122518 78 336 0.0 2.0 0.00 0.00 0.00 84 1015.1
20260905122012 77 331 0.0 2.0 0.00 0.00 0.00 84 1015.3
20260905121529 77 302 1.0 2.0 0.00 0.00 0.00 84 1015.2
20260905121020 77 204 0.0 2.0 0.00 0.00 0.00 85 1015.2
20260905120515 76 352 0.0 2.0 0.00 0.00 0.00 85 1015.2
20260905120030 76 352 0.0 2.0 0.00 0.00 0.00 85 1015.1
20260905115508 76 309 1.0 2.0 0.00 0.00 0.00 86 1015.1
20260905115008 76 15 0.0 2.0 0.00 0.00 0.00 86 1015.1
20260905114509 75 325 0.0 2.0 0.00 0.00 0.00 86 1015.2
20260905114009 75 298 0.0 2.0 0.00 0.00 0.00 86 1015.1
20260905113511 75 296 0.0 2.0 0.00 0.00 0.00 86 1015.0
20260905113025 75 294 0.0 2.0 0.00 0.00 0.00 86 1014.8
20260905112513 75 159 0.0 2.0 0.00 0.00 0.00 86 1014.8
20260905112014 75 293 0.0 2.0 0.00 0.00 0.00 86 1014.8
20260905111526 75 292 0.0 2.0 0.00 0.00 0.00 86 1014.7
20260905111016 75 291 0.0 2.0 0.00 0.00 0.00 86 1014.6
20260905110513 75 267 0.0 2.0 0.00 0.00 0.00 86 1014.5
20260905110028 75 299 0.0 2.0 0.00 0.00 0.00 86 1014.5
20260905105515 75 299 0.0 2.0 0.00 0.00 0.00 86 1014.4
20260905105018 75 275 0.0 2.0 0.00 0.00 0.00 86 1014.3
20260905104518 75 287 0.0 2.0 0.00 0.00 0.00 86 1014.2
20260905104009 75 302 0.0 2.0 0.00 0.00 0.00 86 1014.2
20260905103508 75 268 0.0 2.0 0.00 0.00 0.00 86 1014.1
20260905103022 75 268 0.0 2.0 0.00 0.00 0.00 85 1014.1
20260905102511 75 269 0.0 2.0 0.00 0.00 0.00 85 1014.1
20260905102016 75 270 0.0 2.0 0.00 0.00 0.00 85 1014.0
20260905101537 75 287 0.0 2.0 0.00 0.00 0.00 85 1013.9
20260905101014 75 296 0.0 2.0 0.00 0.00 0.00 85 1013.8
20260905100516 75 277 0.0 2.0 0.00 0.00 0.00 85 1013.8
20260905100028 75 301 0.0 2.0 0.00 0.00 0.00 85 1013.7
20260905095515 75 299 1.0 2.0 0.00 0.00 0.00 85 1013.8
20260905095019 75 214 0.0 2.0 0.00 0.00 0.00 85 1013.9
20260905094530 75 214 0.0 2.0 0.00 0.00 0.00 85 1013.8
20260905094019 75 13 0.0 2.0 0.00 0.00 0.00 85 1013.8
20260905093509 75 13 0.0 2.0 0.00 0.00 0.00 85 1013.8
20260905093013 76 13 0.0 1.0 0.00 0.00 0.00 85 1013.9
20260905092510 76 13 0.0 2.0 0.00 0.00 0.00 84 1013.9
20260905092011 76 13 0.0 2.0 0.00 0.00 0.00 84 1014.0
20260905091523 76 13 0.0 2.0 0.00 0.00 0.00 84 1014.1
20260905091012 76 13 0.0 2.0 0.00 0.00 0.00 84 1013.9
20260905090513 76 296 0.0 2.0 0.00 0.00 0.00 84 1014.0
20260905090028 76 298 0.0 2.0 0.00 0.00 0.00 84 1013.9
20260905085517 76 279 0.0 2.0 0.00 0.00 0.00 84 1014.0
20260905085019 76 304 0.0 2.0 0.00 0.00 0.00 84 1014.1
20260905084533 75 298 0.0 2.0 0.00 0.00 0.00 84 1014.1
20260905084008 75 85 0.0 2.0 0.00 0.00 0.00 84 1014.2
20260905083508 75 85 0.0 2.0 0.00 0.00 0.00 84 1014.3
20260905083012 75 85 0.0 2.0 0.00 0.00 0.00 84 1014.3
20260905082507 75 121 0.0 1.0 0.00 0.00 0.00 83 1014.3
20260905082012 75 121 0.0 2.0 0.00 0.00 0.00 83 1014.3
20260905081516 75 120 0.0 2.0 0.00 0.00 0.00 83 1014.3
20260905081013 76 121 0.0 2.0 0.00 0.00 0.00 83 1014.3
20260905080513 76 121 0.0 2.0 0.00 0.00 0.00 82 1014.4
20260905080032 76 121 0.0 0.0 0.00 0.00 0.00 82 1014.4
20260905075519 76 121 0.0 2.0 0.00 0.00 0.00 82 1014.5
20260905075013 76 121 0.0 2.0 0.00 0.00 0.00 81 1014.5
20260905074531 76 121 0.0 2.0 0.00 0.00 0.00 81 1014.5
20260905074011 76 123 0.0 0.0 0.00 0.00 0.00 81 1014.6
20260905073506 76 125 0.0 0.0 0.00 0.00 0.00 80 1014.6
20260905073016 77 126 0.0 0.0 0.00 0.00 0.00 80 1014.7
20260905072509 77 126 0.0 2.0 0.00 0.00 0.00 80 1014.7
20260905072009 77 126 0.0 2.0 0.00 0.00 0.00 79 1014.7
20260905071515 77 126 0.0 2.0 0.00 0.00 0.00 79 1014.8
20260905071009 77 126 0.0 2.0 0.00 0.00 0.00 79 1014.8
20260905070511 77 126 0.0 2.0 0.00 0.00 0.00 78 1014.9
20260905070031 77 126 0.0 2.0 0.00 0.00 0.00 78 1014.7
20260905065516 78 134 0.0 2.0 0.00 0.00 0.00 77 1014.8
20260905065016 78 134 0.0 2.0 0.00 0.00 0.00 77 1014.8
20260905064534 78 135 0.0 0.0 0.00 0.00 0.00 76 1014.8
20260905064016 78 135 0.0 0.0 0.00 0.00 0.00 76 1014.8
20260905063515 78 135 0.0 2.0 0.00 0.00 0.00 76 1014.9
20260905063008 78 135 0.0 2.0 0.00 0.00 0.00 75 1014.9
20260905062511 79 135 0.0 2.0 0.00 0.00 0.00 75 1015.0
20260905062008 79 135 0.0 2.0 0.00 0.00 0.00 75 1015.1
20260905061512 79 134 0.0 2.0 0.00 0.00 0.00 74 1015.1
20260905061011 79 174 0.0 2.0 0.00 0.00 0.00 74 1015.2
20260905060516 79 175 0.0 2.0 0.00 0.00 0.00 73 1015.3
20260905060031 79 124 0.0 2.0 0.00 0.00 0.00 73 1015.3
20260905055512 79 124 0.0 2.0 0.00 0.00 0.00 73 1015.4
20260905055012 79 124 0.0 2.0 0.00 0.00 0.00 73 1015.5
20260905054530 79 124 0.0 1.0 0.00 0.00 0.00 73 1015.5
20260905054016 79 124 0.0 2.0 0.00 0.00 0.00 72 1015.4
20260905053516 80 124 0.0 2.0 0.00 0.00 0.00 73 1015.5
20260905053035 80 124 0.0 2.0 0.00 0.00 0.00 72 1015.5
20260905052522 80 124 0.0 2.0 0.00 0.00 0.00 72 1015.6
20260905052009 80 124 0.0 0.0 0.00 0.00 0.00 71 1015.7
20260905051512 80 124 0.0 2.0 0.00 0.00 0.00 71 1015.6
20260905051009 80 124 0.0 2.0 0.00 0.00 0.00 71 1015.5
20260905050510 81 121 0.0 2.0 0.00 0.00 0.00 70 1015.5
20260905050017 81 9 0.0 2.0 0.00 0.00 0.00 70 1015.5
20260905045513 81 9 0.0 2.0 0.00 0.00 0.00 70 1015.5
20260905045014 81 9 0.0 2.0 0.00 0.00 0.00 70 1015.5
20260905044526 81 12 0.0 2.0 0.00 0.00 0.00 70 1015.4
20260905044016 81 12 0.0 2.0 0.00 0.00 0.00 71 1015.4
20260905043517 81 12 0.0 2.0 0.00 0.00 0.00 70 1015.3
20260905043030 81 12 0.0 2.0 0.00 0.00 0.00 70 1015.4
20260905042516 81 12 0.0 2.0 0.00 0.00 0.00 71 1015.6
20260905042016 81 12 0.0 2.0 0.00 0.00 0.00 70 1015.4
20260905041535 81 9 0.0 2.0 0.00 0.00 0.00 70 1015.2
20260905041008 81 9 0.0 0.0 0.00 0.00 0.00 70 1015.2
20260905040509 81 9 0.0 2.0 0.00 0.00 0.00 70 1015.3